| time (UTC) | temp C | wind direction | speed KPH | gust KPH | rain 1hr cm | rain 24hr cm | rain mn cm | humidity % | barometer mb |
| 20260509021956 | 13 | 146 | 0.0 | 0.0 | 0.00 | 0.00 | 0.00 | 95 | 1014.2 |
| 20260509021451 | 13 | 146 | 0.0 | 0.0 | 0.00 | 0.00 | 0.00 | 95 | 1014.3 |
| 20260509020439 | 13 | 146 | 0.0 | 0.0 | 0.00 | 0.00 | 0.00 | 95 | 1014.3 |
| 20260509015933 | 13 | 146 | 0.0 | 0.0 | 0.00 | 0.00 | 0.00 | 94 | 1014.2 |
| 20260509015427 | 13 | 146 | 0.0 | 0.0 | 0.00 | 0.00 | 0.00 | 94 | 1014.3 |
| 20260509014921 | 13 | 146 | 0.0 | 0.0 | 0.00 | 0.00 | 0.00 | 94 | 1014.3 |
| 20260509014414 | 13 | 146 | 0.0 | 0.0 | 0.00 | 0.00 | 0.00 | 94 | 1014.1 |
| 20260509013908 | 13 | 146 | 0.0 | 0.0 | 0.00 | 0.00 | 0.00 | 94 | 1013.9 |
| 20260509013634 | 13 | 146 | 0.0 | 0.0 | 0.00 | 0.00 | 0.00 | 93 | 1013.9 |
| 20260509012857 | 13 | 146 | 0.0 | 0.0 | 0.00 | 0.00 | 0.00 | 93 | 1013.8 |
| 20260509012350 | 13 | 146 | 0.0 | 0.0 | 0.00 | 0.00 | 0.00 | 92 | 1013.9 |
| 20260509011844 | 14 | 146 | 0.0 | 0.0 | 0.00 | 0.00 | 0.00 | 92 | 1013.8 |
| 20260509011339 | 14 | 146 | 0.0 | 0.0 | 0.00 | 0.00 | 0.00 | 91 | 1013.8 |
| 20260509010833 | 14 | 146 | 0.0 | 0.0 | 0.00 | 0.00 | 0.00 | 91 | 1013.8 |
| 20260509010327 | 14 | 146 | 0.0 | 0.0 | 0.00 | 0.00 | 0.00 | 90 | 1013.7 |
| 20260509005821 | 14 | 146 | 0.0 | 0.0 | 0.00 | 0.00 | 0.00 | 90 | 1013.7 |
| 20260509005315 | 15 | 146 | 0.0 | 0.0 | 0.00 | 0.00 | 0.00 | 89 | 1013.7 |
| 20260509004809 | 15 | 146 | 0.0 | 0.0 | 0.00 | 0.00 | 0.00 | 88 | 1013.7 |
| 20260509004535 | 15 | 146 | 0.0 | 0.0 | 0.00 | 0.00 | 0.00 | 87 | 1013.6 |
| 20260509003756 | 15 | 146 | 0.0 | 0.0 | 0.00 | 0.00 | 0.00 | 86 | 1013.5 |
| 20260509003251 | 16 | 146 | 0.0 | 0.0 | 0.00 | 0.00 | 0.00 | 85 | 1013.5 |
| 20260509002745 | 16 | 146 | 0.0 | 0.0 | 0.00 | 0.00 | 0.00 | 85 | 1013.5 |
| 20260509002510 | 16 | 146 | 0.0 | 0.0 | 0.00 | 0.00 | 0.00 | 83 | 1013.5 |
| 20260509001733 | 16 | 146 | 0.0 | 0.0 | 0.00 | 0.00 | 0.00 | 83 | 1013.5 |
| 20260509001227 | 16 | 146 | 0.0 | 0.0 | 0.00 | 0.00 | 0.00 | 82 | 1013.4 |
| 20260509000721 | 16 | 146 | 0.0 | 0.0 | 0.00 | 0.00 | 0.00 | 82 | 1013.4 |
| 20260509000215 | 17 | 146 | 0.0 | 0.0 | 0.00 | 0.00 | 0.00 | 82 | 1013.3 |
| 20260508235709 | 17 | 146 | 0.0 | 0.0 | 0.00 | 0.00 | 0.00 | 81 | 1013.3 |
| 20260508235209 | 17 | 146 | 0.0 | 0.0 | 0.00 | 0.00 | 0.00 | 82 | 1013.3 |
| 20260508234709 | 17 | 146 | 0.0 | 0.0 | 0.00 | 0.00 | 0.00 | 81 | 1013.2 |
| 20260508234209 | 17 | 146 | 0.0 | 0.0 | 0.00 | 0.00 | 0.00 | 79 | 1013.2 |
| 20260508233710 | 17 | 146 | 0.0 | 0.0 | 0.00 | 0.00 | 0.00 | 78 | 1013.2 |
| 20260508233207 | 18 | 146 | 0.0 | 1.6 | 0.00 | 0.00 | 0.00 | 78 | 1013.3 |
| 20260508232938 | 18 | 146 | 0.0 | 1.6 | 0.00 | 0.00 | 0.00 | 77 | 1013.3 |
| 20260508232204 | 18 | 146 | 0.0 | 0.0 | 0.00 | 0.00 | 0.00 | 77 | 1013.2 |
| 20260508231937 | 18 | 146 | 0.0 | 0.0 | 0.00 | 0.00 | 0.00 | 77 | 1013.2 |
| 20260508231437 | 18 | 146 | 0.0 | 0.0 | 0.00 | 0.00 | 0.00 | 76 | 1013.1 |
| 20260508230702 | 18 | 146 | 0.0 | 0.0 | 0.00 | 0.00 | 0.00 | 77 | 1013.2 |
| 20260508230202 | 18 | 146 | 0.0 | 0.0 | 0.00 | 0.00 | 0.00 | 76 | 1013.1 |
| 20260508225702 | 19 | 146 | 0.0 | 0.0 | 0.00 | 0.00 | 0.00 | 72 | 1013.2 |
| 20260508224701 | 19 | 146 | 0.0 | 0.0 | 0.00 | 0.00 | 0.00 | 72 | 1013.2 |
| 20260508224428 | 19 | 146 | 0.0 | 4.8 | 0.00 | 0.00 | 0.00 | 67 | 1013.3 |
| 20260508223655 | 19 | 146 | 0.0 | 4.8 | 0.00 | 0.00 | 0.00 | 65 | 1013.4 |
| 20260508223154 | 19 | 144 | 0.0 | 4.8 | 0.00 | 0.00 | 0.00 | 65 | 1013.3 |
| 20260508222655 | 19 | 225 | 0.0 | 4.8 | 0.00 | 0.00 | 0.00 | 66 | 1013.2 |
| 20260508222421 | 20 | 205 | 0.0 | 0.0 | 0.00 | 0.00 | 0.00 | 66 | 1013.2 |
| 20260508221650 | 20 | 205 | 0.0 | 1.6 | 0.00 | 0.00 | 0.00 | 65 | 1013.1 |
| 20260508221153 | 20 | 207 | 0.0 | 3.2 | 0.00 | 0.00 | 0.00 | 63 | 1013.2 |
| 20260508220922 | 20 | 207 | 0.0 | 6.4 | 0.00 | 0.00 | 0.00 | 62 | 1013.1 |
| 20260508220150 | 20 | 209 | 0.0 | 6.4 | 0.00 | 0.00 | 0.00 | 64 | 1013.1 |
| 20260508215652 | 20 | 190 | 1.6 | 9.7 | 0.00 | 0.00 | 0.00 | 63 | 1013.1 |
| 20260508215152 | 20 | 161 | 1.6 | 11.3 | 0.00 | 0.00 | 0.00 | 60 | 1013.2 |
| 20260508214923 | 20 | 219 | 1.6 | 11.3 | 0.00 | 0.00 | 0.00 | 61 | 1013.2 |
| 20260508213651 | 20 | 213 | 3.2 | 12.9 | 0.00 | 0.00 | 0.00 | 58 | 1013.3 |
| 20260508213420 | 20 | 217 | 3.2 | 12.9 | 0.00 | 0.00 | 0.00 | 59 | 1013.3 |
| 20260508212650 | 20 | 207 | 3.2 | 11.3 | 0.00 | 0.00 | 0.00 | 61 | 1013.2 |
| 20260508212421 | 20 | 227 | 3.2 | 11.3 | 0.00 | 0.00 | 0.00 | 59 | 1013.2 |
| 20260508211651 | 20 | 221 | 1.6 | 8.0 | 0.00 | 0.00 | 0.00 | 60 | 1013.2 |
| 20260508210647 | 20 | 199 | 3.2 | 14.5 | 0.00 | 0.00 | 0.00 | 60 | 1013.2 |
| 20260508210419 | 20 | 205 | 3.2 | 16.1 | 0.00 | 0.00 | 0.00 | 57 | 1013.2 |
| 20260508205647 | 20 | 208 | 3.2 | 16.1 | 0.00 | 0.00 | 0.00 | 60 | 1013.2 |
| 20260508205147 | 20 | 195 | 1.6 | 9.7 | 0.00 | 0.00 | 0.00 | 57 | 1013.2 |
| 20260508204916 | 20 | 194 | 3.2 | 9.7 | 0.00 | 0.00 | 0.00 | 57 | 1013.2 |
| 20260508204416 | 20 | 199 | 4.8 | 14.5 | 0.00 | 0.00 | 0.00 | 57 | 1013.2 |
| 20260508203416 | 20 | 223 | 4.8 | 12.9 | 0.00 | 0.00 | 0.00 | 57 | 1013.5 |
| 20260508202646 | 20 | 221 | 3.2 | 12.9 | 0.00 | 0.00 | 0.00 | 59 | 1013.5 |
| 20260508202146 | 20 | 224 | 1.6 | 9.7 | 0.00 | 0.00 | 0.00 | 60 | 1013.6 |
| 20260508201647 | 20 | 94 | 0.0 | 6.4 | 0.00 | 0.00 | 0.00 | 59 | 1013.6 |
| 20260508201144 | 20 | 97 | 0.0 | 8.0 | 0.00 | 0.00 | 0.00 | 59 | 1013.6 |
| 20260508200917 | 20 | 182 | 1.6 | 11.3 | 0.00 | 0.00 | 0.00 | 57 | 1013.6 |
| 20260508200139 | 20 | 202 | 1.6 | 11.3 | 0.00 | 0.00 | 0.00 | 55 | 1013.7 |
| 20260508195640 | 20 | 169 | 1.6 | 8.0 | 0.00 | 0.00 | 0.00 | 59 | 1013.7 |
| 20260508195411 | 20 | 230 | 1.6 | 8.0 | 0.00 | 0.00 | 0.00 | 56 | 1013.9 |
| 20260508194640 | 20 | 151 | 1.6 | 9.7 | 0.00 | 0.00 | 0.00 | 58 | 1014.0 |
| 20260508194139 | 20 | 202 | 1.6 | 11.3 | 0.00 | 0.00 | 0.00 | 60 | 1014.2 |
| 20260508193638 | 20 | 157 | 1.6 | 11.3 | 0.00 | 0.00 | 0.00 | 56 | 1014.2 |
| 20260508193138 | 20 | 159 | 0.0 | 6.4 | 0.00 | 0.00 | 0.00 | 55 | 1014.3 |
| 20260508192630 | 20 | 211 | 0.0 | 6.4 | 0.00 | 0.00 | 0.00 | 54 | 1014.2 |
| 20260508192124 | 20 | 232 | 0.0 | 8.0 | 0.00 | 0.00 | 0.00 | 55 | 1014.4 |
| 20260508191618 | 20 | 94 | 1.6 | 8.0 | 0.00 | 0.00 | 0.00 | 56 | 1014.5 |
| 20260508191343 | 20 | 88 | 3.2 | 11.3 | 0.00 | 0.00 | 0.00 | 58 | 1014.7 |
| 20260508190605 | 20 | 220 | 3.2 | 11.3 | 0.00 | 0.00 | 0.00 | 57 | 1014.7 |
| 20260508190100 | 20 | 163 | 1.6 | 9.7 | 0.00 | 0.00 | 0.00 | 59 | 1014.8 |
| 20260508185553 | 20 | 261 | 3.2 | 12.9 | 0.00 | 0.00 | 0.00 | 57 | 1014.9 |
| 20260508185048 | 20 | 194 | 3.2 | 16.1 | 0.00 | 0.00 | 0.00 | 56 | 1015.1 |
| 20260508184542 | 20 | 156 | 3.2 | 16.1 | 0.00 | 0.00 | 0.00 | 57 | 1015.1 |
| 20260508184036 | 20 | 161 | 1.6 | 11.3 | 0.00 | 0.00 | 0.00 | 57 | 1015.1 |
| 20260508183530 | 20 | 234 | 4.8 | 19.3 | 0.00 | 0.00 | 0.00 | 58 | 1015.2 |
| 20260508183025 | 20 | 215 | 4.8 | 19.3 | 0.00 | 0.00 | 0.00 | 57 | 1015.3 |
| 20260508182518 | 19 | 74 | 1.6 | 9.7 | 0.00 | 0.00 | 0.00 | 60 | 1015.3 |
| 20260508182012 | 19 | 192 | 1.6 | 12.9 | 0.00 | 0.00 | 0.00 | 59 | 1015.4 |
| 20260508181506 | 19 | 209 | 3.2 | 12.9 | 0.00 | 0.00 | 0.00 | 58 | 1015.4 |
| 20260508181232 | 19 | 217 | 3.2 | 11.3 | 0.00 | 0.00 | 0.00 | 59 | 1015.5 |
| 20260508180454 | 19 | 195 | 1.6 | 11.3 | 0.00 | 0.00 | 0.00 | 56 | 1015.3 |
| 20260508180219 | 19 | 168 | 3.2 | 12.9 | 0.00 | 0.00 | 0.00 | 56 | 1015.5 |
| 20260508175442 | 19 | 236 | 3.2 | 12.9 | 0.00 | 0.00 | 0.00 | 64 | 1015.6 |
| 20260508174935 | 20 | 204 | 3.2 | 9.7 | 0.00 | 0.00 | 0.00 | 57 | 1015.6 |
| 20260508174430 | 20 | 217 | 4.8 | 11.3 | 0.00 | 0.00 | 0.00 | 59 | 1015.8 |
| 20260508173924 | 20 | 209 | 3.2 | 11.3 | 0.00 | 0.00 | 0.00 | 58 | 1016.0 |
| 20260508173649 | 19 | 206 | 1.6 | 25.7 | 0.00 | 0.00 | 0.00 | 58 | 1015.8 |
| 20260508172911 | 19 | 196 | 1.6 | 25.7 | 0.00 | 0.00 | 0.00 | 60 | 1015.8 |
| 20260508172637 | 18 | 215 | 1.6 | 9.7 | 0.00 | 0.00 | 0.00 | 60 | 1016.0 |
| 20260508172132 | 19 | 181 | 1.6 | 9.7 | 0.00 | 0.00 | 0.00 | 57 | 1016.3 |
| 20260508171354 | 19 | 206 | 1.6 | 14.5 | 0.00 | 0.00 | 0.00 | 62 | 1016.3 |
| 20260508170848 | 19 | 215 | 1.6 | 14.5 | 0.00 | 0.00 | 0.00 | 62 | 1016.4 |
| 20260508170342 | 19 | 235 | 1.6 | 6.4 | 0.00 | 0.00 | 0.00 | 60 | 1016.5 |
| 20260508165835 | 19 | 165 | 0.0 | 6.4 | 0.00 | 0.00 | 0.00 | 63 | 1016.5 |
| 20260508165330 | 18 | 163 | 1.6 | 12.9 | 0.00 | 0.00 | 0.00 | 64 | 1016.6 |
| 20260508164823 | 18 | 160 | 1.6 | 12.9 | 0.00 | 0.00 | 0.00 | 61 | 1016.8 |
| 20260508164318 | 18 | 152 | 1.6 | 11.3 | 0.00 | 0.00 | 0.00 | 59 | 1016.9 |
| 20260508163812 | 18 | 269 | 3.2 | 11.3 | 0.00 | 0.00 | 0.00 | 62 | 1016.9 |
| 20260508163307 | 18 | 177 | 3.2 | 11.3 | 0.00 | 0.00 | 0.00 | 64 | 1017.0 |
| 20260508162759 | 18 | 215 | 0.0 | 6.4 | 0.00 | 0.00 | 0.00 | 64 | 1017.0 |
| 20260508162254 | 17 | 182 | 0.0 | 3.2 | 0.00 | 0.00 | 0.00 | 61 | 1017.1 |
| 20260508161747 | 17 | 223 | 0.0 | 3.2 | 0.00 | 0.00 | 0.00 | 62 | 1017.1 |
| 20260508161245 | 18 | 158 | 0.0 | 4.8 | 0.00 | 0.00 | 0.00 | 58 | 1017.2 |
| 20260508161016 | 18 | 154 | 0.0 | 6.4 | 0.00 | 0.00 | 0.00 | 61 | 1017.2 |
| 20260508160245 | 18 | 150 | 1.6 | 12.9 | 0.00 | 0.00 | 0.00 | 63 | 1017.3 |
| 20260508155745 | 18 | 181 | 1.6 | 12.9 | 0.00 | 0.00 | 0.00 | 59 | 1017.3 |
| 20260508155514 | 18 | 219 | 0.0 | 8.0 | 0.00 | 0.00 | 0.00 | 65 | 1017.4 |
| 20260508154743 | 18 | 176 | 0.0 | 0.0 | 0.00 | 0.00 | 0.00 | 65 | 1017.4 |
| 20260508154513 | 18 | 171 | 1.6 | 11.3 | 0.00 | 0.00 | 0.00 | 61 | 1017.4 |
| 20260508153514 | 18 | 73 | 1.6 | 9.7 | 0.00 | 0.00 | 0.00 | 60 | 1017.5 |
| 20260508152744 | 18 | 191 | 0.0 | 9.7 | 0.00 | 0.00 | 0.00 | 61 | 1017.6 |
| 20260508152244 | 18 | 242 | 1.6 | 11.3 | 0.00 | 0.00 | 0.00 | 59 | 1017.6 |
| 20260508151742 | 18 | 223 | 1.6 | 11.3 | 0.00 | 0.00 | 0.00 | 59 | 1017.6 |
| 20260508150742 | 18 | 101 | 0.0 | 0.0 | 0.00 | 0.00 | 0.00 | 67 | 1017.6 |
| 20260508150243 | 17 | 19 | 0.0 | 0.0 | 0.00 | 0.00 | 0.00 | 62 | 1017.6 |
| 20260508145739 | 17 | 19 | 0.0 | 4.8 | 0.00 | 0.00 | 0.00 | 64 | 1017.6 |
| 20260508145239 | 17 | 19 | 0.0 | 4.8 | 0.00 | 0.00 | 0.00 | 62 | 1017.5 |
| 20260508144735 | 17 | 272 | 0.0 | 8.0 | 0.00 | 0.00 | 0.00 | 68 | 1017.5 |
| 20260508144235 | 17 | 5 | 1.6 | 8.0 | 0.00 | 0.00 | 0.00 | 65 | 1017.5 |
| 20260508143734 | 16 | 219 | 1.6 | 8.0 | 0.00 | 0.00 | 0.00 | 67 | 1017.5 |
| 20260508143505 | 16 | 207 | 1.6 | 9.7 | 0.00 | 0.00 | 0.00 | 67 | 1017.6 |
| 20260508143007 | 17 | 203 | 1.6 | 9.7 | 0.00 | 0.00 | 0.00 | 67 | 1017.7 |
| 20260508142507 | 17 | 94 | 1.6 | 6.4 | 0.00 | 0.00 | 0.00 | 70 | 1017.7 |
| 20260508142005 | 17 | 25 | 0.0 | 6.4 | 0.00 | 0.00 | 0.00 | 70 | 1017.7 |
| 20260508141235 | 17 | 67 | 0.0 | 0.0 | 0.00 | 0.00 | 0.00 | 65 | 1017.8 |
| 20260508140735 | 17 | 147 | 0.0 | 0.0 | 0.00 | 0.00 | 0.00 | 68 | 1017.9 |
| 20260508140235 | 16 | 148 | 0.0 | 0.0 | 0.00 | 0.00 | 0.00 | 65 | 1017.9 |
| 20260508135736 | 16 | 190 | 0.0 | 0.0 | 0.00 | 0.00 | 0.00 | 70 | 1017.9 |
| 20260508135234 | 16 | 235 | 0.0 | 0.0 | 0.00 | 0.00 | 0.00 | 69 | 1018.0 |
| 20260508134735 | 16 | 5 | 0.0 | 0.0 | 0.00 | 0.00 | 0.00 | 73 | 1018.0 |
| 20260508134234 | 16 | 5 | 0.0 | 1.6 | 0.00 | 0.03 | 0.00 | 71 | 1018.0 |
| 20260508133735 | 16 | 5 | 0.0 | 1.6 | 0.00 | 0.03 | 0.00 | 71 | 1018.0 |
| 20260508133234 | 15 | 9 | 0.0 | 0.0 | 0.00 | 0.05 | 0.00 | 75 | 1017.9 |
| 20260508133006 | 15 | 9 | 0.0 | 0.0 | 0.00 | 0.05 | 0.00 | 76 | 1017.9 |
| 20260508132233 | 15 | 9 | 0.0 | 0.0 | 0.00 | 0.08 | 0.00 | 74 | 1017.9 |
| 20260508131727 | 15 | 32 | 0.0 | 0.0 | 0.00 | 0.08 | 0.00 | 76 | 1017.8 |
| 20260508131220 | 14 | 32 | 0.0 | 0.0 | 0.00 | 0.10 | 0.00 | 80 | 1017.7 |
| 20260508130945 | 14 | 36 | 0.0 | 0.0 | 0.00 | 0.10 | 0.00 | 86 | 1017.7 |
| 20260508130208 | 13 | 36 | 0.0 | 0.0 | 0.00 | 0.10 | 0.00 | 88 | 1017.7 |
| 20260508125158 | 12 | 36 | 0.0 | 0.0 | 0.00 | 0.15 | 0.00 | 100 | 1017.7 |
| 20260508124651 | 12 | 80 | 0.0 | 0.0 | 0.00 | 0.15 | 0.00 | 100 | 1017.7 |
| 20260508124415 | 12 | 80 | 0.0 | 0.0 | 0.00 | 0.15 | 0.00 | 100 | 1017.6 |
| 20260508123638 | 12 | 80 | 0.0 | 0.0 | 0.00 | 0.15 | 0.00 | 100 | 1017.6 |
| 20260508123133 | 11 | 80 | 0.0 | 0.0 | 0.00 | 0.15 | 0.00 | 100 | 1017.5 |
| 20260508122628 | 11 | 63 | 0.0 | 0.0 | 0.00 | 0.18 | 0.00 | 100 | 1017.4 |
| 20260508122121 | 10 | 355 | 0.0 | 0.0 | 0.00 | 0.18 | 0.00 | 100 | 1017.3 |
| 20260508121614 | 9 | 355 | 0.0 | 0.0 | 0.00 | 0.18 | 0.00 | 100 | 1017.3 |
| 20260508121108 | 8 | 355 | 0.0 | 0.0 | 0.00 | 0.18 | 0.00 | 100 | 1017.2 |
| 20260508120604 | 8 | 355 | 0.0 | 0.0 | 0.00 | 0.18 | 0.00 | 100 | 1017.2 |
| 20260508120057 | 7 | 355 | 0.0 | 0.0 | 0.00 | 0.18 | 0.00 | 100 | 1017.2 |
| 20260508115551 | 7 | 337 | 0.0 | 0.0 | 0.00 | 0.18 | 0.00 | 100 | 1017.1 |
| 20260508115045 | 7 | 337 | 0.0 | 0.0 | 0.00 | 0.20 | 0.00 | 100 | 1017.0 |
| 20260508114539 | 6 | 5 | 0.0 | 0.0 | 0.00 | 0.20 | 0.00 | 99 | 1017.0 |
| 20260508113019 | 6 | 5 | 0.0 | 0.0 | 0.00 | 0.23 | 0.00 | 99 | 1016.8 |
| 20260508112513 | 6 | 5 | 0.0 | 0.0 | 0.00 | 0.25 | 0.00 | 99 | 1016.8 |
| 20260508112007 | 6 | 5 | 0.0 | 0.0 | 0.00 | 0.28 | 0.00 | 99 | 1016.6 |
| 20260508111504 | 6 | 5 | 0.0 | 0.0 | 0.00 | 0.30 | 0.00 | 99 | 1016.5 |
| 20260508111225 | 6 | 5 | 0.0 | 0.0 | 0.00 | 0.33 | 0.00 | 99 | 1016.4 |
| 20260508110450 | 6 | 5 | 0.0 | 0.0 | 0.00 | 0.36 | 0.00 | 99 | 1016.4 |
| 20260508105943 | 6 | 5 | 0.0 | 0.0 | 0.00 | 0.38 | 0.00 | 99 | 1016.4 |
| 20260508105437 | 6 | 5 | 0.0 | 0.0 | 0.00 | 0.38 | 0.00 | 98 | 1016.3 |
| 20260508105201 | 6 | 5 | 0.0 | 0.0 | 0.00 | 0.38 | 0.00 | 98 | 1016.3 |
| 20260508104425 | 5 | 5 | 0.0 | 0.0 | 0.00 | 0.38 | 0.00 | 98 | 1016.1 |
| 20260508103413 | 6 | 5 | 0.0 | 0.0 | 0.00 | 0.38 | 0.00 | 98 | 1015.8 |
| 20260508103137 | 6 | 5 | 0.0 | 0.0 | 0.00 | 0.38 | 0.00 | 98 | 1015.8 |
| 20260508102400 | 6 | 5 | 0.0 | 0.0 | 0.00 | 0.38 | 0.00 | 98 | 1015.6 |
| 20260508101620 | 6 | 5 | 0.0 | 0.0 | 0.00 | 0.41 | 0.00 | 98 | 1015.6 |
| 20260508100844 | 6 | 5 | 0.0 | 0.0 | 0.00 | 0.43 | 0.00 | 98 | 1015.4 |
| 20260508100337 | 6 | 5 | 0.0 | 0.0 | 0.00 | 0.43 | 0.00 | 98 | 1015.3 |
| 20260508095831 | 6 | 5 | 0.0 | 0.0 | 0.00 | 0.51 | 0.00 | 98 | 1015.1 |
| 20260508095325 | 6 | 5 | 0.0 | 0.0 | 0.00 | 0.51 | 0.00 | 98 | 1015.1 |
| 20260508094819 | 6 | 5 | 0.0 | 0.0 | 0.00 | 0.51 | 0.00 | 98 | 1015.2 |
| 20260508094312 | 6 | 5 | 0.0 | 0.0 | 0.00 | 0.51 | 0.00 | 98 | 1015.2 |
| 20260508093807 | 6 | 5 | 0.0 | 0.0 | 0.00 | 0.51 | 0.00 | 98 | 1015.1 |
| 20260508093301 | 6 | 5 | 0.0 | 0.0 | 0.00 | 0.51 | 0.00 | 98 | 1015.1 |
| 20260508092250 | 6 | 5 | 0.0 | 0.0 | 0.00 | 0.51 | 0.00 | 98 | 1015.1 |
| 20260508091743 | 6 | 5 | 0.0 | 0.0 | 0.00 | 0.51 | 0.00 | 98 | 1015.1 |
| 20260508091237 | 6 | 5 | 0.0 | 0.0 | 0.00 | 0.51 | 0.00 | 98 | 1015.1 |
| 20260508090731 | 6 | 5 | 0.0 | 0.0 | 0.00 | 0.51 | 0.00 | 98 | 1015.0 |
| 20260508090225 | 6 | 5 | 0.0 | 0.0 | 0.00 | 0.51 | 0.00 | 98 | 1015.1 |
| 20260508085720 | 6 | 5 | 0.0 | 0.0 | 0.00 | 0.51 | 0.00 | 98 | 1014.9 |
| 20260508085450 | 6 | 5 | 0.0 | 0.0 | 0.00 | 0.51 | 0.00 | 98 | 1014.9 |
| 20260508084721 | 6 | 5 | 0.0 | 0.0 | 0.00 | 0.51 | 0.00 | 98 | 1014.9 |
| 20260508084218 | 6 | 5 | 0.0 | 0.0 | 0.00 | 0.51 | 0.00 | 97 | 1014.9 |
| 20260508083948 | 6 | 5 | 0.0 | 0.0 | 0.00 | 0.51 | 0.00 | 98 | 1014.8 |
| 20260508082715 | 6 | 5 | 0.0 | 0.0 | 0.00 | 0.51 | 0.00 | 97 | 1014.7 |
| 20260508082220 | 6 | 5 | 0.0 | 0.0 | 0.00 | 0.51 | 0.00 | 97 | 1014.8 |
| 20260508081717 | 7 | 5 | 0.0 | 0.0 | 0.00 | 0.51 | 0.00 | 97 | 1014.6 |
| 20260508081214 | 7 | 5 | 0.0 | 0.0 | 0.00 | 0.51 | 0.00 | 97 | 1014.7 |
| 20260508080944 | 7 | 5 | 0.0 | 0.0 | 0.00 | 0.51 | 0.00 | 97 | 1014.6 |
| 20260508080213 | 7 | 5 | 0.0 | 0.0 | 0.00 | 0.53 | 0.00 | 97 | 1014.5 |
| 20260508075713 | 7 | 5 | 0.0 | 0.0 | 0.00 | 0.53 | 0.00 | 97 | 1014.5 |
| 20260508075214 | 7 | 5 | 0.0 | 0.0 | 0.00 | 0.53 | 0.00 | 97 | 1014.6 |
| 20260508074711 | 7 | 5 | 0.0 | 0.0 | 0.00 | 0.53 | 0.00 | 97 | 1014.5 |
| 20260508074210 | 7 | 5 | 0.0 | 0.0 | 0.00 | 0.53 | 0.00 | 97 | 1014.5 |
| 20260508073708 | 7 | 5 | 0.0 | 0.0 | 0.00 | 0.53 | 0.00 | 97 | 1014.4 |
| 20260508073208 | 7 | 5 | 0.0 | 0.0 | 0.00 | 0.53 | 0.00 | 97 | 1014.4 |
| 20260508072703 | 7 | 5 | 0.0 | 0.0 | 0.00 | 0.53 | 0.00 | 97 | 1014.3 |
| 20260508072434 | 7 | 5 | 0.0 | 0.0 | 0.00 | 0.53 | 0.00 | 97 | 1014.3 |
| 20260508071704 | 7 | 5 | 0.0 | 0.0 | 0.00 | 0.53 | 0.00 | 97 | 1014.2 |
| 20260508071203 | 8 | 5 | 0.0 | 0.0 | 0.00 | 0.53 | 0.00 | 97 | 1014.3 |
| 20260508070704 | 8 | 5 | 0.0 | 0.0 | 0.00 | 0.53 | 0.00 | 97 | 1014.2 |
| 20260508070203 | 8 | 5 | 0.0 | 0.0 | 0.00 | 0.53 | 0.00 | 97 | 1014.2 |
| 20260508065703 | 8 | 5 | 0.0 | 0.0 | 0.00 | 0.53 | 0.00 | 97 | 1014.1 |
| 20260508065204 | 8 | 5 | 0.0 | 0.0 | 0.00 | 0.53 | 0.00 | 97 | 1014.1 |
| 20260508064705 | 8 | 5 | 0.0 | 0.0 | 0.00 | 0.53 | 0.00 | 97 | 1014.0 |
| 20260508064205 | 8 | 5 | 0.0 | 0.0 | 0.00 | 0.53 | 0.00 | 97 | 1014.1 |
| 20260508063705 | 8 | 5 | 0.0 | 0.0 | 0.00 | 0.53 | 0.00 | 97 | 1014.1 |
| 20260508063434 | 8 | 5 | 0.0 | 0.0 | 0.00 | 0.56 | 0.00 | 97 | 1014.1 |
| 20260508062935 | 8 | 5 | 0.0 | 0.0 | 0.00 | 0.56 | 0.00 | 97 | 1014.1 |
| 20260508062204 | 8 | 0 | 0.0 | 0.0 | 0.00 | 0.56 | 0.00 | 96 | 1014.0 |
| 20260508061705 | 8 | 0 | 0.0 | 0.0 | 0.00 | 0.56 | 0.00 | 96 | 1013.9 |
| 20260508061203 | 8 | 0 | 0.0 | 0.0 | 0.00 | 0.58 | 0.00 | 96 | 1014.0 |
| 20260508060705 | 8 | 0 | 0.0 | 0.0 | 0.00 | 0.58 | 0.00 | 96 | 1014.0 |
| 20260508060437 | 8 | 0 | 0.0 | 0.0 | 0.00 | 0.58 | 0.00 | 96 | 1014.0 |
| 20260508055700 | 8 | 0 | 0.0 | 0.0 | 0.00 | 0.64 | 0.00 | 96 | 1014.2 |
| 20260508055153 | 8 | 0 | 0.0 | 0.0 | 0.00 | 0.64 | 0.00 | 96 | 1014.0 |
| 20260508054648 | 8 | 0 | 0.0 | 0.0 | 0.00 | 0.66 | 0.00 | 96 | 1014.1 |
| 20260508054142 | 8 | 0 | 0.0 | 0.0 | 0.00 | 0.66 | 0.00 | 96 | 1014.1 |
| 20260508053636 | 8 | 0 | 0.0 | 0.0 | 0.00 | 0.66 | 0.00 | 95 | 1014.1 |
| 20260508053130 | 8 | 0 | 0.0 | 0.0 | 0.00 | 0.66 | 0.00 | 95 | 1014.0 |
| 20260508052625 | 8 | 0 | 0.0 | 0.0 | 0.00 | 0.69 | 0.00 | 96 | 1014.1 |
| 20260508052118 | 9 | 0 | 0.0 | 0.0 | 0.00 | 0.69 | 0.00 | 95 | 1014.0 |
| 20260508051612 | 9 | 0 | 0.0 | 0.0 | 0.00 | 0.69 | 0.00 | 95 | 1013.9 |
| 20260508051338 | 9 | 0 | 0.0 | 0.0 | 0.00 | 0.69 | 0.00 | 95 | 1013.9 |
| 20260508050600 | 9 | 0 | 0.0 | 0.0 | 0.00 | 0.69 | 0.00 | 95 | 1013.8 |
| 20260508050059 | 9 | 0 | 0.0 | 0.0 | 0.00 | 0.69 | 0.00 | 94 | 1013.8 |
| 20260508045555 | 9 | 0 | 0.0 | 0.0 | 0.00 | 0.71 | 0.00 | 94 | 1013.9 |
| 20260508045054 | 9 | 0 | 0.0 | 0.0 | 0.00 | 0.71 | 0.00 | 94 | 1013.9 |
| 20260508044551 | 9 | 0 | 0.0 | 0.0 | 0.00 | 0.74 | 0.00 | 93 | 1013.8 |
| 20260508044051 | 10 | 0 | 0.0 | 0.0 | 0.00 | 0.74 | 0.00 | 93 | 1013.6 |
| 20260508043551 | 10 | 0 | 0.0 | 0.0 | 0.00 | 0.74 | 0.00 | 93 | 1013.7 |
| 20260508043052 | 10 | 0 | 0.0 | 0.0 | 0.00 | 0.74 | 0.00 | 93 | 1013.7 |
| 20260508042552 | 10 | 0 | 0.0 | 0.0 | 0.00 | 0.74 | 0.00 | 92 | 1013.7 |
| 20260508042321 | 10 | 0 | 0.0 | 0.0 | 0.00 | 0.74 | 0.00 | 92 | 1013.5 |
| 20260508041549 | 10 | 0 | 0.0 | 0.0 | 0.00 | 0.74 | 0.00 | 91 | 1013.5 |
| 20260508041049 | 11 | 0 | 0.0 | 0.0 | 0.00 | 0.74 | 0.00 | 90 | 1013.5 |
| 20260508040829 | 11 | 0 | 0.0 | 0.0 | 0.00 | 0.74 | 0.00 | 89 | 1013.4 |
| 20260508040047 | 11 | 0 | 0.0 | 0.0 | 0.00 | 0.74 | 0.00 | 87 | 1013.5 |
| 20260508035546 | 11 | 0 | 0.0 | 0.0 | 0.00 | 0.74 | 0.74 | 88 | 1013.5 |
| 20260508035317 | 11 | 21 | 0.0 | 0.0 | 0.00 | 0.74 | 0.74 | 89 | 1013.6 |
| 20260508034544 | 11 | 21 | 0.0 | 0.0 | 0.00 | 0.74 | 0.74 | 89 | 1013.5 |
| 20260508034044 | 11 | 21 | 0.0 | 0.0 | 0.00 | 0.74 | 0.74 | 89 | 1013.6 |
| 20260508033542 | 11 | 21 | 0.0 | 0.0 | 0.00 | 0.74 | 0.74 | 87 | 1013.5 |
| 20260508033040 | 11 | 21 | 0.0 | 0.0 | 0.00 | 0.74 | 0.74 | 87 | 1013.5 |
| 20260508032537 | 11 | 21 | 0.0 | 0.0 | 0.00 | 0.74 | 0.74 | 87 | 1013.5 |
| 20260508032031 | 11 | 22 | 0.0 | 0.0 | 0.00 | 0.74 | 0.74 | 88 | 1013.4 |
| 20260508031525 | 12 | 22 | 0.0 | 0.0 | 0.00 | 0.74 | 0.74 | 86 | 1013.4 |
| 20260508031250 | 12 | 22 | 0.0 | 6.4 | 0.00 | 0.74 | 0.74 | 85 | 1013.3 |
| 20260508030513 | 13 | 24 | 0.0 | 6.4 | 0.00 | 0.74 | 0.74 | 83 | 1013.3 |
| 20260508030007 | 13 | 9 | 0.0 | 0.0 | 0.00 | 0.74 | 0.74 | 82 | 1013.2 |
| 20260508025733 | 13 | 9 | 0.0 | 0.0 | 0.00 | 0.74 | 0.74 | 78 | 1013.2 |
| 20260508024955 | 13 | 10 | 0.0 | 0.0 | 0.00 | 0.74 | 0.74 | 80 | 1013.2 |
| 20260508024449 | 13 | 10 | 0.0 | 0.0 | 0.00 | 0.74 | 0.74 | 79 | 1013.2 |
| 20260508023943 | 14 | 10 | 0.0 | 3.2 | 0.00 | 0.74 | 0.74 | 75 | 1013.2 |
| 20260508023708 | 15 | 10 | 0.0 | 3.2 | 0.00 | 0.74 | 0.74 | 70 | 1013.1 |
| 20260508022931 | 15 | 5 | 0.0 | 4.8 | 0.00 | 0.76 | 0.74 | 69 | 1013.0 |
| 20260508022656 | 15 | 316 | 0.0 | 4.8 | 0.00 | 0.81 | 0.74 | 70 | 1012.9 |